Location: Buchberg
(46.9333°N, 15.8500°E)
Time: 19:54:00
(UTC+00:00)

Cosmos 1500 - Pass Details

Date: 14 July 2020
Orbit: 498 x 521 km, 82.5° (Epoch: 05 August)

Event Time Altitude Azimuth Distance (km) Brightness Sun altitude
Exits shadow 00:58:24 37° 207° (SSW) 808 3.6 -16.6°
Maximum altitude 00:59:46 70° 280° (W) 549 3.2 -16.5°
Drops below altitude 10° 01:03:33 10° 5° (N) 1,735 6.9 -16.2°
Sets 01:05:42 0° 8° (N) 2,622 8.1 -16.0°
